Regional Weather Roundup
Issued by NWS Sioux Falls, SD

Home | Current Version | Previous Version | Graphics & Text | Print | Product List | Glossary On
Versions: 1 2 3 4 5 6 7 8 9 10 11 12 13 14 15 16 17 18 19 20 21 22 23 24 25 26 27 28 29 30 31 32 33 34 35 36 37 38 39 40 41 42 43 44 45 46 47 48 49 50
000
ASUS43 KFSD 230010
RWRFSD

WEATHER ROUNDUP FOR SE SOUTH DAKOTA/SW MINNESOTA/NW IOWA
NATIONAL WEATHER SERVICE SIOUX FALLS SD
700 PM CDT SUN OCT 22 2017

NOTE: "FAIR" INDICATES FEW OR NO CLOUDS BELOW 12,000 FEET WITH NO
SIGNIFICANT WEATHER AND OR OBSTRUCTIONS TO VISIBILITY.


SDZ038>040-050-052>070-230100-
SOUTHEAST SOUTH DAKOTA

CITY           SKY/WX    TMP DP  RH WIND       PRES   REMARKS
BROOKINGS      PTCLDY    57  31  37 S8        29.86S
CHAMBERLAIN    CLEAR     55  34  45 S6        29.84R
6HR MIN TEMP:  55; 6HR MAX TEMP:  71;

HURON          CLEAR     58  33  39 S7        29.82S
6HR MIN TEMP:  58; 6HR MAX TEMP:  66;

MADISON        FAIR      55  27  33 S5        29.87S
MITCHELL       CLEAR     62  31  31 SW6       29.85S
6HR MIN TEMP:  62; 6HR MAX TEMP:  69;

SIOUX FALLS    PTCLDY    56  33  42 S9        29.89S
6HR MIN TEMP:  56; 6HR MAX TEMP:  68;

WINNER         FAIR      58  35  42 S9        29.86S
YANKTON        CLEAR     63  29  27 S8        29.89F
$$

MNZ071-072-080-081-089-090-097-098-230100-
SOUTHWEST MINNESOTA

CITY           SKY/WX    TMP DP  RH WIND       PRES   REMARKS
FAIRMONT       CLEAR     51  34  52 S9        29.95F
JACKSON        CLEAR     55  30  38 S8        29.94F
LUVERNE        CLEAR     52  28  40 SW5       29.90S
MARSHALL       CLEAR     57  33  40 S8        29.88R
6HR MIN TEMP:  57; 6HR MAX TEMP:  66;

MONTEVIDEO     PTCLDY    57  30  35 SW6       29.86R
PIPESTONE      CLEAR     54  28  37 SW6       29.89R
REDWOOD FALLS  PTCLDY    56  33  42 S10       29.88F
TRACY          CLEAR     58  33  38 S8        29.89S
WORTHINGTON    CLEAR     56  31  38 S8        29.92F
$$

IAZ001>003-012>014-020>022-031-032-NEZ013-014-SDZ071-230100-
NORTHWEST IOWA

CITY           SKY/WX    TMP DP  RH WIND       PRES   REMARKS
CHEROKEE       CLEAR     54  33  44 S7        29.96S
DENISON        CLEAR     57  34  41 S10       30.01S
ESTHERVILLE    CLEAR     50  34  54 S9        29.95F
LE MARS        CLEAR     57  32  38 S7        29.93F
ORANGE CITY    CLEAR     57  34  41 S7        29.93F
SHELDON        CLEAR     57  30  35 S8        29.91F
SIOUX CITY     CLEAR     58  31  35 S8        29.94F
6HR MIN TEMP:  58; 6HR MAX TEMP:  69;

SPENCER        CLEAR     51  34  52 S8        29.95F
6HR MIN TEMP:  50; 6HR MAX TEMP:  66;

STORM LAKE     CLEAR     55  32  41 S9        29.98S
$$

ABBREVIATIONS USED IN REMARKS
   TC - TEMPERATURE IN CELSIUS
  WCI - WIND CHILL INDEX
   HX - HEAT INDEX
  VSB - VISIBILITY





USA.gov is the U.S. government's official web portal to all federal, state and local government web resources and services.